Regional Weather Roundup
Issued by NWS

Home | Current Version | Previous Version | Graphics & Text | Print | Product List | Glossary On
Versions: 1 2 3 4 5 6 7 8 9 10 11 12 13 14 15 16 17 18 19 20 21 22 23 24 25 26 27 28 29 30 31 32 33 34 35 36 37 38 39 40 41 42 43 44 45 46 47 48 49 50
000
ASUS43 KDTX 010901
RWRMI
MICHIGAN HOURLY REGIONAL WEATHER ROUNDUP
NATIONAL WEATHER SERVICE DETROIT/PONTIAC MI
500 AM EDT SUN MAY 01 2016

NOTE: "FAIR" INDICATES FEW OR NO CLOUDS BELOW 12,000 FEET WITH NO
SIGNIFICANT WEATHER AND/OR OBSTRUCTION TO VISIBILITY.

MIZ047>049-052>055-059>063-066>070-074>076-081>083-011000-
SOUTHEAST LOWER MICHIGAN

CITY           SKY/WX    TMP DP  RH WIND       PRES   REMARKS
ADRIAN         CLOUDY    49  48  97 E9        29.89S FOG
ALMA           CLOUDY    43  42  98 N8        29.96S
ANN ARBOR      CLOUDY    48  47  96 NE10      29.89F
BAD AXE        LGT RAIN  44  42  93 E6        29.99F
CARO           CLOUDY    44  43  95 E6        29.95F
DETROIT CITY   CLOUDY    48  46  93 NE8       29.91S FOG
DETROIT        DRIZZLE   49  47  93 NE8       29.91S FOG
FLINT          CLOUDY    48  44  86 NE8       29.94S
GROSSE ILE     CLOUDY    48  46  93 NE9       29.88S FOG
HILLSDALE      CLOUDY    47  47 100 E7        29.89R FOG
HOWELL         CLOUDY    46  46  99 NE5       29.91S FOG

CITY           SKY/WX    TMP DP  RH WIND       PRES   REMARKS
JACKSON        CLOUDY    47  45  93 NE6       29.90R FOG
LAMBERTVILLE   CLOUDY    49  48  94 E5        29.89S FOG
LANSING        CLOUDY    44  43  96 NE9       29.92S FOG
LAPEER         DRIZZLE   44  43  97 NE5       29.94S
MASON          CLOUDY    45  44  96 NE6       29.91F FOG
MONROE         CLOUDY    48  48  99 NE7       29.88S FOG
MT. CLEMENS    LGT RAIN  46  46 100 NE13      29.90F FOG
PONTIAC        CLOUDY    47  45  93 NE9       29.90F
PORT HOPE        N/A     43  39  86 E3        29.99R
PORT HURON     DRIZZLE   45  43  93 N7        29.93F
TRI CITIES     LGT RAIN  47  44  90 NE9       29.97S
MIDLAND        CLOUDY    43  43  98 N6        29.97S
TROY           DRIZZLE   47  47  97 NE10      29.93S
SAGINAW HB     CLOUDY    45  43  93 NE9       29.95F
$$
MIZ043>046-050>051-056>058-064>065-071>073-077>080-011000-
SOUTHWEST LOWER MICHIGAN

CITY           SKY/WX    TMP DP  RH WIND       PRES   REMARKS
BATTLE CREEK   CLOUDY    47  45  93 NE7       29.91S
BENTON HARBOR  CLOUDY    50  47  89 NE5       29.91R
BIG RAPIDS     CLOUDY    42  39  88 N5        29.98S
COLDWATER      CLOUDY    48  48 100 E3        29.90R FOG
FREMONT        CLOUDY    44  42  95 NE7       29.97S
HOLLAND        CLOUDY    46  44  93 NE7       29.95R FOG
GRAND RAPIDS   LGT RAIN  46  44  93 NE10      29.94S FOG
IONIA          CLOUDY    43  42  99 NE7       29.94R
KALAMAZOO      CLOUDY    48  45  89 NE5       29.91S
LUDINGTON      CLOUDY    43  41  94 N5        30.02S
MARSHALL       CLOUDY    46  45  95 NE5       29.90S FOG
MOUNT PLEASANT CLOUDY    42  41  96 N7        29.98R
MUSKEGON       CLOUDY    44  41  89 NE9       29.97R FOG
$$
MIZ016>042-011000-
NORTHERN LOWER MICHIGAN

CITY           SKY/WX    TMP DP  RH WIND       PRES   REMARKS
ALPENA         CLOUDY    46  31  55 E8        30.05R
BEAVER ISLAND  CLOUDY    43  34  69 NE7       30.08S
BELLAIRE       CLOUDY    48  27  43 CALM      30.05S
CADILLAC       RAIN      40  37  89 NE6       30.00S
CHARLEVOIX     CLOUDY    42  33  70 NW3       30.09R
FRANKFORT      LGT RAIN  46  36  68 CALM      30.04S
GAYLORD        CLOUDY    45  26  47 NE8       30.04R
HARBOR SPRINGS CLOUDY    46  31  54 NE8       30.06R
HOUGHTON LAKE  LGT RAIN  42  36  79 NE3       30.02S
MANISTEE       CLOUDY    45  36  70 NE5       30.03S
OSCODA         LGT RAIN  43  39  87 NW3       30.03R
PELLSTON       CLOUDY    43  33  68 CALM      30.08R
ROGERS CITY    CLOUDY    42  33  71 E5        30.07R
TRAVERSE CITY  CLOUDY    45  36  70 N6        30.03S
$$
MIZ007>008-015-011000-
EASTERN UPPER MICHIGAN

CITY           SKY/WX    TMP DP  RH WIND       PRES   REMARKS
KINROSS          N/A     45  34  65 NE10      30.09R
MACKINAC ISLAN PTCLDY    44  32  64 NE9       30.07R
NEWBERRY       CLOUDY    37  33  84 N5        30.11R WCI  34
S. S. MARIE    CLOUDY    47  31  53 NE8       30.09S
MUNISING         N/A     31  29  92 S6        30.12R WCI  25
$$
MIZ004>006-011>014-085-011000-
CENTRAL UPPER MICHIGAN

CITY           SKY/WX    TMP DP  RH WIND       PRES   REMARKS
MANISTIQUE     CLOUDY    38  34  85 N7        30.09S WCI  33
ESCANABA       CLOUDY    39  34  81 N5        30.10S
MENOMINEE      CLOUDY    43  32  65 NE8       30.07S
SAWYER-GWINN   CLOUDY    37  34  90 NE9       30.13R WCI  30
$$
MIZ001>003-009>011-084-011000-
WESTERN UPPER MICHIGAN

CITY           SKY/WX    TMP DP  RH WIND       PRES   REMARKS
IRON MOUNTAIN  MOCLDY    37  32  82 NW6       30.09S WCI  32
HOUGHTON       CLOUDY    40  34  79 NE10      30.17R WCI  33
COPPER HARBOR    N/A     39  37  92 NE3       30.19S
IRONWOOD         N/A     34  32  93 N5        30.16S WCI  30
$$

ABBREVIATIONS USED IN REMARKS
   TC - TEMPERATURE IN CELSIUS
  WCI - WIND CHILL INDEX
   HX - HEAT INDEX
  VSB - VISIBILITY




USA.gov is the U.S. government's official web portal to all federal, state and local government web resources and services.